Regional Weather Roundup
Issued by NWS

Home | Current Version | Previous Version | Graphics & Text | Print | Product List | Glossary On
Versions: 1 2 3 4 5 6 7 8 9 10 11 12 13 14 15 16 17 18 19 20 21 22 23 24 25 26 27 28 29 30 31 32 33 34 35 36 37 38 39 40 41 42 43 44 45 46 47 48 49 50
000
ASUS43 KOAX 060402
RWRNE

WEATHER ROUNDUP FOR NEBRASKA
NATIONAL WEATHER SERVICE OMAHA NE
1100 PM CDT TUE MAY 05 2015

NOTES: SATELLITE DATA IS BEING USED TO AUGMENT CLOUD COVER ABOVE
       12000 FEET.
       "FAIR" INDICATES FEW OR NO CLOUDS BELOW 12,000 FEET WITH NO
       SIGNIFICANT WEATHER AND/OR OBSTRUCTIONS TO VISIBILITY.

  * THESE STATIONS DO NOT REPORT WEATHER SUCH AS RAIN...SNOW OR FOG.

NEZ001>004-019>022-054>056-060500-
NEBRASKA PANHANDLE

CITY           SKY/WX    TMP DP  RH WIND       PRES   REMARKS
SCOTTSBLUFF    LGT RAIN  53  32  44 E17       29.82F
ALLIANCE       CLOUDY    54  51  90 MISG      29.84S
CHADRON        CLOUDY    57  50  77 SE10      29.83F
KIMBALL        LGT RAIN  51  51  99 E13G24    29.79F
SIDNEY         LGT RAIN  52  51  97 SE22G29   29.81S FOG
$$

NEZ057>060-069>072-079>082-060500-
SOUTHWEST NEBRASKA

CITY           SKY/WX    TMP DP  RH WIND       PRES   REMARKS
NORTH PLATTE   LGT RAIN  54  53  97 SE15      29.86F
IMPERIAL       CLOUDY    55  53  93 E18       29.80F
MCCOOK         RAIN      59  57  93 SE17G29   29.81F FOG
$$

NEZ005>010-023>029-035>040-094-060500-
NORTH CENTRAL NEBRASKA

CITY           SKY/WX    TMP DP  RH WIND       PRES   REMARKS
VALENTINE      CLOUDY    56  55  97 E5        29.90S
AINSWORTH      DRIZZLE   58  58  98 SE9       29.91S
BROKEN BOW     LGT RAIN  58  55  90 SE15      29.91R
ORD            LGT RAIN  61  54  77 SE14G22   29.92R
$$

NEZ041-046>049-061>064-073>077-083>087-060500-
SOUTH CENTRAL NEBRASKA

CITY           SKY/WX    TMP DP  RH WIND       PRES   REMARKS
GRAND ISLAND   LGT RAIN  60  55  83 S9        29.94S
AURORA         LGT RAIN  61  57  86 S7        29.95S
HASTINGS       CLOUDY    60  56  86 SE9       29.93S
HEBRON         CLOUDY    65  55  69 SE9       29.95S
HOLDREGE       CLOUDY    58  56  94 SE18      29.89S
KEARNEY *      CLOUDY    57  54  88 SE15G21   29.92S
YORK           LGT RAIN  64  59  82 S10G16    29.96R
$$

NEZ011>018-030>034-042>045-060500-
NORTHEAST NEBRASKA

CITY           SKY/WX    TMP DP  RH WIND       PRES   REMARKS
NORFOLK        CLOUDY    67  58  72 SE10      29.94F
ALBION         RAIN      62  57  81 SE14      29.95S
BLAIR          CLOUDY    70  55  58 SE20G30   29.98S
COLUMBUS *     CLOUDY    66  55  68 SE12      29.97R
FREMONT        CLOUDY    70  58  66 SE12      29.96F
TEKAMAH        CLOUDY    68  60  75 SE13      29.97S
$$

NEZ050>053-065>068-078-088>093-060500-
SOUTHEAST NEBRASKA

CITY           SKY/WX    TMP DP  RH WIND       PRES   REMARKS
LINCOLN        CLOUDY    67  59  75 SE14      29.96R
OMAHA EPPLEY   CLOUDY    71  58  63 SE18G29   29.98S
BEATRICE       LGT RAIN  65  60  85 SE13      29.97R
FALLS CITY     CLOUDY    64  60  87 SE8       30.00F
NEBRASKA CITY  CLOUDY    64  56  74 SE13G21   30.00S
PLATTSMOUTH    CLOUDY    67  55  65 SE13      29.99F
$$

NEZ044-045-051>053-067-060500-
OMAHA AREA

CITY           SKY/WX    TMP DP  RH WIND       PRES   REMARKS
OMAHA EPPLEY   CLOUDY    71  58  63 SE18G29   29.98S
BLAIR          CLOUDY    70  55  58 SE20G30   29.98S
FREMONT        CLOUDY    70  58  66 SE12      29.96F
PLATTSMOUTH    CLOUDY    67  55  65 SE13      29.99F
$$



USA.gov is the U.S. government's official web portal to all federal, state and local government web resources and services.